This is the latest recevied weather packets stored in our database for station/object KB4NWJ. If no packets are shown the sender has not sent any weather packets the latest 1 day(s).
| Time | Temp. | Humidity | Pressure | Rain* | Wind** | Luminosity | Snow |
|---|---|---|---|---|---|---|---|
| 1778004714 | 24.44° C | 44% | 1016.5 hPa | 0 mm | 0.45 m/s, 184° | 750 W/m² | - |
| 1778004409 | 24.44° C | 44% | 1016.5 hPa | 0 mm | 0.89 m/s, 213° | 622 W/m² | - |
| 1778004107 | 24.44° C | 42% | 1016.6 hPa | 0 mm | 0.89 m/s, 209° | 641 W/m² | - |
| 1778003803 | 24.44° C | 43% | 1016.7 hPa | 0 mm | 2.24 m/s, 273° | 613 W/m² | - |
| 1778003499 | 24.44° C | 44% | 1016.7 hPa | 0 mm | 0.45 m/s, 220° | 623 W/m² | - |
| 1778003196 | 23.89° C | 45% | 1016.8 hPa | 0 mm | 0.45 m/s, 299° | 590 W/m² | - |
| 1778002892 | 24.44° C | 42% | 1016.8 hPa | 0 mm | 0.45 m/s, 245° | 639 W/m² | - |
| 1778002589 | 24.44° C | 42% | 1016.9 hPa | 0 mm | 1.34 m/s, 131° | 677 W/m² | - |
| 1778002286 | 24.44° C | 44% | 1017.1 hPa | 0 mm | 1.34 m/s, 28° | 700 W/m² | - |
| 1778001983 | 23.89° C | 45% | 1017.2 hPa | 0 mm | 1.34 m/s, 68° | 661 W/m² | - |
| 1778001680 | 23.33° C | 45% | 1017.1 hPa | 0 mm | 1.79 m/s, 176° | 667 W/m² | - |
| 1778001375 | 23.89° C | 46% | 1017.3 hPa | 0 mm | 0.89 m/s, 275° | 714 W/m² | - |
| 1778001072 | 23.89° C | 46% | 1017 hPa | 0 mm | 0.89 m/s, 290° | 716 W/m² | - |
| 1778000769 | 23.89° C | 45% | 1017.2 hPa | 0 mm | 0.89 m/s, 286° | 678 W/m² | - |
| 1778000465 | 23.33° C | 50% | 1017.3 hPa | 0 mm | 1.34 m/s, 271° | 674 W/m² | - |
| 1778000160 | 23.33° C | 50% | 1017.1 hPa | 0 mm | 1.34 m/s, 172° | 658 W/m² | - |
| 1777999856 | 23.33° C | 51% | 1017.2 hPa | 0 mm | 0.89 m/s, 243° | 610 W/m² | - |
| 1777999552 | 23.89° C | 50% | 1017 hPa | 0 mm | 1.34 m/s, 250° | 544 W/m² | - |
| 1777999250 | 23.89° C | 51% | 1017.2 hPa | 0 mm | 0.89 m/s, 197° | 606 W/m² | - |
| 1777998948 | 23.89° C | 50% | 1017.3 hPa | 0 mm | 0.45 m/s, 319° | 724 W/m² | - |
| 1777998645 | 23.33° C | 50% | 1017.4 hPa | 0 mm | 1.34 m/s, 275° | 744 W/m² | - |
| 1777998343 | 23.33° C | 51% | 1017.2 hPa | 0 mm | 2.24 m/s, 136° | 679 W/m² | - |
| 1777998041 | 23.33° C | 52% | 1017.5 hPa | 0 mm | 1.79 m/s, 203° | 690 W/m² | - |
| 1777997737 | 23.33° C | 54% | 1017 hPa | 0 mm | 1.34 m/s, 169° | 649 W/m² | - |
| 1777997435 | 23.33° C | 53% | 1017.2 hPa | 0 mm | 0.89 m/s, 276° | 591 W/m² | - |
* Rain latest hour (hover to see other rain measurements)
** Current wind speed in m/s (hover to see current wind gust speed)